• In Romania
  • List of Countries
  • For 7 days
  • Water Temperature
  • Satellite Maps
  • Weather Map
  • Weather Widgets
  • user-avatar
    Login

    Hourly Weather Ali Bayramli

    Today, 23 May, Tuesday

    Time Temperature Precipitation Wind Pressure Humidity
    00:00 +18°C° 0 mm 2 mps 755 mmHg 79%
    01:00 +17°C° 0 mm 2 mps 755 mmHg 80%
    02:00 +18°C° 0 mm 1 mps 755 mmHg 81%
    03:00 +18°C° 0 mm 1 mps 754 mmHg 82%
    04:00 +19°C° 0 mm 1 mps 755 mmHg 81%
    05:00 +19°C° 0 mm 1 mps 755 mmHg 80%
    06:00 +19°C° 0 mm 2 mps 755 mmHg 79%
    07:00 +20°C° 0 mm 2 mps 755 mmHg 74%
    08:00 +21°C° 0 mm 2 mps 755 mmHg 69%
    09:00 +24°C° 0 mm 3 mps 755 mmHg 65%
    10:00 +25°C° 0 mm 3 mps 754 mmHg 57%
    11:00 +27°C° 0 mm 3 mps 754 mmHg 50%
    12:00 +29°C° 0 mm 3 mps 754 mmHg 42%
    13:00 +30°C° 0 mm 3 mps 754 mmHg 40%
    14:00 +30°C° 0 mm 3 mps 753 mmHg 38%
    15:00 +31°C° 0 mm 3 mps 753 mmHg 36%
    16:00 +30°C° 0 mm 4 mps 753 mmHg 40%
    17:00 +29°C° 0 mm 4 mps 754 mmHg 44%
    18:00 +27°C° 0 mm 4 mps 754 mmHg 48%
    19:00 +26°C° 0 mm 4 mps 755 mmHg 54%
    20:00 +23°C° 0 mm 4 mps 755 mmHg 59%
    21:00 +22°C° 0 mm 4 mps 756 mmHg 64%
    22:00 +21°C° 0.2 mm 4 mps 756 mmHg 66%
    23:00 +21°C° 0.2 mm 4 mps 756 mmHg 68%

    Tomorrow, 24 May, Wednesday

    Time Temperature Precipitation Wind Pressure Humidity
    00:00 +20°C° 0.2 mm 4 mps 756 mmHg 70%
    01:00 +20°C° 0 mm 3 mps 756 mmHg 72%
    02:00 +19°C° 0 mm 3 mps 756 mmHg 73%
    03:00 +19°C° 0 mm 3 mps 756 mmHg 75%
    04:00 +19°C° 0 mm 3 mps 756 mmHg 73%
    05:00 +19°C° 0 mm 3 mps 756 mmHg 72%
    06:00 +20°C° 0 mm 3 mps 756 mmHg 70%
    07:00 +21°C° 0 mm 2 mps 756 mmHg 65%
    08:00 +23°C° 0 mm 2 mps 756 mmHg 60%
    09:00 +25°C° 0 mm 2 mps 757 mmHg 55%
    10:00 +26°C° 0 mm 2 mps 756 mmHg 51%
    11:00 +27°C° 0 mm 2 mps 756 mmHg 48%
    12:00 +27°C° 0 mm 2 mps 756 mmHg 45%
    13:00 +28°C° 0 mm 3 mps 756 mmHg 45%
    14:00 +28°C° 0 mm 3 mps 756 mmHg 45%
    15:00 +28°C° 0 mm 4 mps 755 mmHg 44%
    16:00 +27°C° 0.2 mm 4 mps 755 mmHg 48%
    17:00 +26°C° 0.2 mm 4 mps 756 mmHg 51%
    18:00 +25°C° 0.2 mm 4 mps 756 mmHg 54%
    19:00 +23°C° 0 mm 4 mps 756 mmHg 58%
    20:00 +22°C° 0 mm 3 mps 757 mmHg 63%
    21:00 +20°C° 0 mm 3 mps 757 mmHg 67%
    22:00 +20°C° 0 mm 3 mps 757 mmHg 69%
    23:00 +20°C° 0 mm 3 mps 757 mmHg 70%

    Day after tomorrow, 25 May, Thursday

    Time Temperature Precipitation Wind Pressure Humidity
    00:00 +19°C° 0 mm 3 mps 757 mmHg 72%
    01:00 +19°C° 0 mm 3 mps 758 mmHg 74%
    02:00 +19°C° 0 mm 2 mps 758 mmHg 75%
    03:00 +18°C° 0 mm 2 mps 758 mmHg 77%
    04:00 +19°C° 0 mm 2 mps 758 mmHg 75%
    05:00 +19°C° 0 mm 2 mps 758 mmHg 72%
    06:00 +20°C° 0 mm 2 mps 758 mmHg 70%
    07:00 +21°C° 0 mm 2 mps 758 mmHg 63%
    08:00 +24°C° 0 mm 2 mps 758 mmHg 56%
    09:00 +25°C° 0 mm 2 mps 759 mmHg 50%
    10:00 +26°C° 0 mm 2 mps 758 mmHg 46%
    11:00 +27°C° 0 mm 2 mps 758 mmHg 42%
    12:00 +28°C° 0 mm 2 mps 758 mmHg 38%
    13:00 +29°C° 0 mm 3 mps 757 mmHg 38%
    14:00 +29°C° 0 mm 4 mps 757 mmHg 38%
    15:00 +29°C° 0 mm 4 mps 757 mmHg 38%
    16:00 +28°C° 0 mm 5 mps 757 mmHg 44%
    17:00 +26°C° 0 mm 5 mps 757 mmHg 50%
    18:00 +24°C° 0 mm 6 mps 757 mmHg 57%
    19:00 +22°C° 0 mm 5 mps 758 mmHg 60%
    20:00 +21°C° 0 mm 4 mps 759 mmHg 64%
    21:00 +20°C° 0 mm 4 mps 759 mmHg 67%
    22:00 +20°C° 0 mm 3 mps 759 mmHg 69%
    23:00 +19°C° 0 mm 2 mps 759 mmHg 71%

    26 May, Friday

    Time Temperature Precipitation Wind Pressure Humidity
    00:00 +19°C° 0 mm 2 mps 759 mmHg 73%
    01:00 +19°C° 0 mm 2 mps 759 mmHg 74%
    02:00 +19°C° 0 mm 1 mps 759 mmHg 76%
    03:00 +19°C° 0 mm 1 mps 759 mmHg 77%
    04:00 +19°C° 0 mm 1 mps 759 mmHg 76%
    05:00 +20°C° 0 mm 1 mps 759 mmHg 74%
    06:00 +21°C° 0 mm 1 mps 759 mmHg 72%
    07:00 +22°C° 0 mm 1 mps 759 mmHg 67%
    08:00 +23°C° 0 mm 1 mps 759 mmHg 62%
    09:00 +25°C° 0 mm 1 mps 759 mmHg 57%
    10:00 +26°C° 0 mm 2 mps 759 mmHg 53%
    11:00 +27°C° 0 mm 3 mps 758 mmHg 49%
    12:00 +29°C° 0 mm 3 mps 758 mmHg 45%
    13:00 +29°C° 0 mm 4 mps 758 mmHg 45%
    14:00 +29°C° 0 mm 5 mps 757 mmHg 45%
    15:00 +29°C° 0 mm 6 mps 757 mmHg 45%
    16:00 +28°C° 0 mm 6 mps 757 mmHg 48%
    17:00 +26°C° 0 mm 6 mps 756 mmHg 51%
    18:00 +24°C° 0 mm 6 mps 756 mmHg 54%
    19:00 +23°C° 0 mm 5 mps 757 mmHg 60%
    20:00 +22°C° 0 mm 4 mps 757 mmHg 65%
    21:00 +20°C° 0 mm 3 mps 757 mmHg 70%
    22:00 +20°C° 0 mm 2 mps 757 mmHg 72%
    23:00 +20°C° 0 mm 2 mps 757 mmHg 74%

    27 May, Saturday

    Time Temperature Precipitation Wind Pressure Humidity
    00:00 +20°C° 0 mm 1 mps 757 mmHg 76%
    01:00 +20°C° 0 mm 1 mps 757 mmHg 77%
    02:00 +19°C° 0 mm 1 mps 757 mmHg 78%
    03:00 +19°C° 0 mm 1 mps 757 mmHg 78%
    04:00 +20°C° 0 mm 1 mps 757 mmHg 75%
    05:00 +21°C° 0 mm 1 mps 757 mmHg 72%
    06:00 +21°C° 0 mm 1 mps 757 mmHg 69%
    07:00 +23°C° 0 mm 1 mps 756 mmHg 61%
    08:00 +25°C° 0 mm 2 mps 756 mmHg 54%
    09:00 +26°C° 0 mm 2 mps 756 mmHg 47%
    10:00 +28°C° 0 mm 2 mps 755 mmHg 43%
    11:00 +29°C° 0 mm 2 mps 755 mmHg 39%
    12:00 +30°C° 0 mm 2 mps 754 mmHg 36%
    13:00 +30°C° 0.1 mm 3 mps 754 mmHg 36%
    14:00 +31°C° 0.1 mm 3 mps 753 mmHg 36%
    15:00 +31°C° 0.1 mm 3 mps 753 mmHg 36%
    16:00 +30°C° 0.3 mm 3 mps 753 mmHg 40%
    17:00 +29°C° 0.3 mm 3 mps 752 mmHg 43%
    18:00 +27°C° 0.3 mm 3 mps 752 mmHg 47%
    19:00 +26°C° 0.1 mm 2 mps 752 mmHg 52%
    20:00 +25°C° 0.1 mm 2 mps 753 mmHg 56%
    21:00 +23°C° 0.1 mm 1 mps 753 mmHg 60%
    22:00 +23°C° 0 mm 1 mps 752 mmHg 59%
    23:00 +23°C° 0 mm 2 mps 752 mmHg 59%

    28 May, Sunday

    Time Temperature Precipitation Wind Pressure Humidity
    00:00 +23°C° 0 mm 2 mps 752 mmHg 58%
    01:00 +21°C° 0 mm 3 mps 752 mmHg 58%
    02:00 +21°C° 0 mm 3 mps 752 mmHg 59%
    03:00 +20°C° 0 mm 3 mps 752 mmHg 59%
    04:00 +21°C° 0 mm 4 mps 752 mmHg 57%
    05:00 +21°C° 0 mm 4 mps 752 mmHg 56%
    06:00 +22°C° 0 mm 5 mps 753 mmHg 54%
    07:00 +25°C° 0 mm 5 mps 753 mmHg 47%
    08:00 +27°C° 0 mm 6 mps 753 mmHg 39%
    09:00 +29°C° 0 mm 6 mps 753 mmHg 31%
    10:00 +32°C° 0 mm 6 mps 752 mmHg 28%
    11:00 +33°C° 0 mm 6 mps 752 mmHg 26%
    12:00 +35°C° 0 mm 6 mps 752 mmHg 23%
    13:00 +35°C° 0 mm 6 mps 752 mmHg 23%
    14:00 +35°C° 0 mm 6 mps 751 mmHg 22%
    15:00 +36°C° 0 mm 5 mps 751 mmHg 22%
    16:00 +34°C° 0 mm 5 mps 751 mmHg 29%
    17:00 +30°C° 0 mm 5 mps 752 mmHg 37%
    18:00 +28°C° 0 mm 5 mps 752 mmHg 44%
    19:00 +27°C° 0 mm 5 mps 753 mmHg 49%
    20:00 +25°C° 0 mm 4 mps 753 mmHg 54%
    21:00 +22°C° 0 mm 4 mps 754 mmHg 59%
    22:00 +22°C° 0 mm 3 mps 754 mmHg 60%
    23:00 +21°C° 0 mm 2 mps 754 mmHg 61%
    Show more